Time,TemperatureF,DewpointF,PressureIn,WindDirection,WindDirectionDegrees,WindSpeedMPH,WindSpeedGustMPH,Humidity,HourlyPrecipIn,Conditions,Clouds,dailyrainin,SoftwareType,DateUTC
2013-08-29 00:00:00,71.8,71.1,29.60,West,270,0.0,1.6,97,0.00,,,0.46,fowsr,2013-08-29 04:00:00,
2013-08-29 00:05:00,71.8,71.1,29.60,SW,225,0.7,1.6,97,0.00,,,0.46,fowsr,2013-08-29 04:05:00,
2013-08-29 00:10:00,71.8,71.1,29.60,West,270,1.6,2.2,97,0.00,,,0.46,fowsr,2013-08-29 04:10:00,
2013-08-29 00:15:00,71.8,71.1,29.60,West,270,0.0,0.7,97,0.00,,,0.46,fowsr,2013-08-29 04:15:00,
2013-08-29 00:20:00,71.8,71.1,29.60,SW,225,0.0,0.7,97,0.00,,,0.46,fowsr,2013-08-29 04:20:00,
2013-08-29 00:25:00,71.6,70.9,29.59,West,270,0.0,1.6,97,0.00,,,0.46,fowsr,2013-08-29 04:25:00,
2013-08-29 00:30:00,71.6,70.9,29.59,NE,45,0.0,0.0,97,0.00,,,0.46,fowsr,2013-08-29 04:30:00,
2013-08-29 00:35:00,71.6,70.9,29.59,NE,45,0.0,0.0,97,0.00,,,0.46,fowsr,2013-08-29 04:35:00,
2013-08-29 00:40:00,71.6,70.9,29.60,NE,45,0.0,0.0,97,0.00,,,0.46,fowsr,2013-08-29 04:40:00,
2013-08-29 00:45:00,71.6,70.9,29.60,South,180,0.0,1.6,97,0.00,,,0.46,fowsr,2013-08-29 04:45:00,
2013-08-29 00:50:00,71.6,70.9,29.60,South,180,0.7,1.6,97,0.00,,,0.46,fowsr,2013-08-29 04:50:00,
2013-08-29 00:55:00,71.8,71.1,29.59,West,270,1.6,3.1,97,0.00,,,0.46,fowsr,2013-08-29 04:55:00,
2013-08-29 01:00:00,71.8,71.1,29.59,South,180,0.7,1.6,97,0.00,,,0.46,fowsr,2013-08-29 05:00:00,
2013-08-29 01:10:00,71.6,70.9,29.60,SW,225,0.0,0.0,97,0.00,,,0.46,fowsr,2013-08-29 05:10:00,
2013-08-29 01:15:00,71.6,70.9,29.60,East,90,0.0,0.0,97,0.00,,,0.46,fowsr,2013-08-29 05:15:00,
2013-08-29 01:20:00,71.6,70.9,29.60,East,90,0.0,0.0,97,0.00,,,0.46,fowsr,2013-08-29 05:20:00,
2013-08-29 01:25:00,71.6,70.9,29.60,SW,225,1.6,2.2,97,0.00,,,0.46,fowsr,2013-08-29 05:25:00,
2013-08-29 01:30:00,71.6,70.9,29.60,WSW,247,0.7,1.6,97,0.00,,,0.46,fowsr,2013-08-29 05:30:00,
2013-08-29 01:35:00,71.8,71.1,29.60,West,270,0.7,2.2,97,0.00,,,0.46,fowsr,2013-08-29 05:35:00,
2013-08-29 01:40:00,71.8,71.1,29.60,SW,225,0.7,1.6,97,0.00,,,0.46,fowsr,2013-08-29 05:40:00,
2013-08-29 01:45:00,71.6,70.9,29.60,SW,225,2.2,3.8,97,0.00,,,0.46,fowsr,2013-08-29 05:45:00,
2013-08-29 01:50:00,71.6,70.9,29.60,SW,225,1.6,2.2,97,0.00,,,0.46,fowsr,2013-08-29 05:50:00,
2013-08-29 01:55:00,71.6,70.9,29.60,SW,225,0.7,2.2,97,0.00,,,0.46,fowsr,2013-08-29 05:55:00,
2013-08-29 02:00:00,71.6,70.9,29.60,SW,225,1.6,2.2,97,0.00,,,0.46,fowsr,2013-08-29 06:00:00,
2013-08-29 02:05:00,71.6,70.9,29.60,SW,225,0.7,2.2,97,0.00,,,0.46,fowsr,2013-08-29 06:05:00,
2013-08-29 02:10:00,71.6,70.9,29.60,West,270,0.7,1.6,97,0.00,,,0.46,fowsr,2013-08-29 06:10:00,
2013-08-29 02:15:00,71.6,70.9,29.60,SW,225,0.0,0.7,97,0.00,,,0.46,fowsr,2013-08-29 06:15:00,
2013-08-29 02:20:00,71.6,70.9,29.60,SW,225,0.7,1.6,97,0.00,,,0.46,fowsr,2013-08-29 06:20:00,
2013-08-29 02:25:00,71.4,71.0,29.60,West,270,1.6,3.1,98,0.01,,,0.47,fowsr,2013-08-29 06:25:00,
2013-08-29 02:30:00,71.4,71.0,29.60,West,270,1.6,2.2,98,0.01,,,0.47,fowsr,2013-08-29 06:30:00,
2013-08-29 02:40:00,71.2,70.8,29.61,South,180,0.0,0.7,98,0.01,,,0.47,fowsr,2013-08-29 06:40:00,
2013-08-29 02:45:00,71.2,70.8,29.60,South,180,0.0,0.7,98,0.01,,,0.47,fowsr,2013-08-29 06:45:00,
2013-08-29 02:50:00,71.1,70.6,29.59,South,180,0.0,1.6,98,0.01,,,0.47,fowsr,2013-08-29 06:50:00,
2013-08-29 02:55:00,70.9,70.4,29.60,South,180,0.0,0.7,98,0.01,,,0.47,fowsr,2013-08-29 06:55:00,
2013-08-29 03:00:00,70.9,70.4,29.60,West,270,0.7,2.2,98,0.01,,,0.47,fowsr,2013-08-29 07:00:00,
2013-08-29 03:05:00,70.9,70.4,29.60,SW,225,0.0,1.6,98,0.01,,,0.47,fowsr,2013-08-29 07:05:00,
2013-08-29 03:10:00,70.7,70.2,29.60,South,180,0.0,1.6,98,0.01,,,0.47,fowsr,2013-08-29 07:10:00,
2013-08-29 03:15:00,70.7,70.2,29.60,West,270,0.7,1.6,98,0.01,,,0.47,fowsr,2013-08-29 07:15:00,
2013-08-29 03:20:00,70.7,70.2,29.60,South,180,1.6,3.1,98,0.01,,,0.47,fowsr,2013-08-29 07:20:00,
2013-08-29 03:25:00,70.7,70.2,29.60,SW,225,0.7,2.2,98,0.00,,,0.47,fowsr,2013-08-29 07:25:00,
2013-08-29 03:30:00,70.5,70.1,29.60,SW,225,1.6,3.1,98,0.00,,,0.47,fowsr,2013-08-29 07:30:00,
2013-08-29 03:35:00,70.5,70.1,29.60,SW,225,1.6,3.1,98,0.00,,,0.47,fowsr,2013-08-29 07:35:00,
2013-08-29 03:40:00,70.5,70.1,29.60,South,180,1.6,3.1,98,0.00,,,0.47,fowsr,2013-08-29 07:40:00,
2013-08-29 03:45:00,70.5,70.1,29.61,NW,315,3.1,5.4,98,0.00,,,0.47,fowsr,2013-08-29 07:45:00,
2013-08-29 03:50:00,70.5,70.1,29.61,SW,225,3.8,5.4,98,0.00,,,0.47,fowsr,2013-08-29 07:50:00,
2013-08-29 03:55:00,70.3,69.9,29.61,SW,225,1.6,3.1,98,0.00,,,0.47,fowsr,2013-08-29 07:55:00,
2013-08-29 04:00:00,70.2,69.7,29.61,SW,225,1.6,3.1,98,0.00,,,0.47,fowsr,2013-08-29 08:00:00,
2013-08-29 04:05:00,70.2,69.7,29.61,SSW,202,0.7,2.2,98,0.00,,,0.47,fowsr,2013-08-29 08:05:00,
2013-08-29 04:10:00,70.0,69.5,29.61,SW,225,2.2,3.8,98,0.00,,,0.47,fowsr,2013-08-29 08:10:00,
2013-08-29 04:15:00,70.0,69.5,29.61,South,180,1.6,3.1,98,0.00,,,0.47,fowsr,2013-08-29 08:15:00,
2013-08-29 04:20:00,69.8,69.3,29.61,South,180,0.0,1.6,98,0.00,,,0.47,fowsr,2013-08-29 08:20:00,
2013-08-29 04:25:00,69.8,69.3,29.61,SW,225,0.7,1.6,98,0.00,,,0.47,fowsr,2013-08-29 08:25:00,
2013-08-29 04:30:00,69.8,69.3,29.61,SW,225,0.7,2.2,98,0.00,,,0.47,fowsr,2013-08-29 08:30:00,
2013-08-29 04:35:00,69.8,69.3,29.61,South,180,3.8,4.5,98,0.00,,,0.47,fowsr,2013-08-29 08:35:00,
2013-08-29 04:40:00,69.8,69.3,29.62,South,180,1.6,3.1,98,0.00,,,0.47,fowsr,2013-08-29 08:40:00,
2013-08-29 04:45:00,69.8,69.3,29.62,SW,225,1.6,3.1,98,0.00,,,0.47,fowsr,2013-08-29 08:45:00,
2013-08-29 04:50:00,70.0,69.5,29.62,SW,225,2.2,3.1,98,0.00,,,0.47,fowsr,2013-08-29 08:50:00,
2013-08-29 04:55:00,70.0,69.5,29.62,SW,225,0.7,2.2,98,0.00,,,0.47,fowsr,2013-08-29 08:55:00,
2013-08-29 05:00:00,70.0,69.5,29.62,SW,225,0.0,0.7,98,0.00,,,0.47,fowsr,2013-08-29 09:00:00,
2013-08-29 05:05:00,70.2,69.7,29.62,West,270,1.6,2.2,98,0.00,,,0.47,fowsr,2013-08-29 09:05:00,
2013-08-29 05:10:00,70.2,69.7,29.62,West,270,1.6,3.1,98,0.00,,,0.47,fowsr,2013-08-29 09:10:00,
2013-08-29 05:15:00,70.2,69.7,29.62,South,180,0.0,1.6,98,0.00,,,0.47,fowsr,2013-08-29 09:15:00,
2013-08-29 05:20:00,70.2,69.7,29.62,SW,225,0.7,2.2,98,0.00,,,0.47,fowsr,2013-08-29 09:20:00,
2013-08-29 05:25:00,70.2,69.7,29.62,South,180,0.0,1.6,98,0.00,,,0.47,fowsr,2013-08-29 09:25:00,
2013-08-29 05:30:00,70.2,69.7,29.62,South,180,0.0,0.7,98,0.00,,,0.47,fowsr,2013-08-29 09:30:00,
2013-08-29 05:35:00,70.2,69.7,29.62,South,180,1.6,3.8,98,0.00,,,0.47,fowsr,2013-08-29 09:35:00,
2013-08-29 05:45:00,70.5,70.1,29.62,West,270,1.6,2.2,98,0.00,,,0.47,fowsr,2013-08-29 09:45:00,
2013-08-29 05:50:00,70.7,70.2,29.62,West,270,0.7,1.6,98,0.00,,,0.47,fowsr,2013-08-29 09:50:00,
2013-08-29 05:55:00,71.1,70.6,29.62,West,270,2.2,3.8,98,0.00,,,0.47,fowsr,2013-08-29 09:55:00,
2013-08-29 06:00:00,71.8,71.1,29.63,SW,225,3.1,5.4,97,0.00,,,0.47,fowsr,2013-08-29 10:00:00,
2013-08-29 06:05:00,72.1,71.4,29.63,NW,315,6.0,15.9,97,0.00,,,0.47,fowsr,2013-08-29 10:05:00,
2013-08-29 06:10:00,72.5,71.8,29.63,SW,225,4.5,6.0,97,0.00,,,0.47,fowsr,2013-08-29 10:10:00,
2013-08-29 06:15:00,72.7,72.0,29.63,SW,225,5.4,7.6,97,0.00,,,0.47,fowsr,2013-08-29 10:15:00,
2013-08-29 06:20:00,72.9,72.1,29.63,SW,225,3.8,9.2,97,0.00,,,0.47,fowsr,2013-08-29 10:20:00,
2013-08-29 06:25:00,72.9,72.1,29.63,West,270,4.5,7.6,97,0.00,,,0.47,fowsr,2013-08-29 10:25:00,
2013-08-29 06:30:00,72.9,72.1,29.63,WSW,247,4.5,7.6,97,0.00,,,0.47,fowsr,2013-08-29 10:30:00,
2013-08-29 06:35:00,73.0,72.3,29.63,SSW,202,3.8,5.4,97,0.00,,,0.47,fowsr,2013-08-29 10:35:00,
2013-08-29 06:40:00,73.0,72.3,29.64,SW,225,3.1,6.0,97,0.00,,,0.47,fowsr,2013-08-29 10:40:00,
2013-08-29 06:45:00,73.0,72.3,29.64,West,270,3.8,7.6,97,0.00,,,0.47,fowsr,2013-08-29 10:45:00,
2013-08-29 06:50:00,73.2,72.5,29.64,West,270,4.5,8.3,97,0.00,,,0.47,fowsr,2013-08-29 10:50:00,
2013-08-29 06:55:00,73.2,72.5,29.64,SW,225,0.7,1.6,97,0.00,,,0.47,fowsr,2013-08-29 10:55:00,
2013-08-29 07:00:00,73.2,72.5,29.64,SW,225,3.8,6.9,97,0.00,,,0.47,fowsr,2013-08-29 11:00:00,
2013-08-29 07:05:00,73.2,72.5,29.64,SW,225,2.2,5.4,97,0.00,,,0.47,fowsr,2013-08-29 11:05:00,
2013-08-29 07:10:00,73.2,72.5,29.64,West,270,3.1,5.4,97,0.00,,,0.47,fowsr,2013-08-29 11:10:00,
2013-08-29 07:15:00,73.2,72.5,29.65,SW,225,3.8,6.0,97,0.00,,,0.47,fowsr,2013-08-29 11:15:00,
2013-08-29 07:20:00,73.2,72.5,29.65,West,270,3.8,4.5,97,0.00,,,0.47,fowsr,2013-08-29 11:20:00,
2013-08-29 07:25:00,73.2,72.5,29.65,SE,135,3.8,5.4,97,0.00,,,0.47,fowsr,2013-08-29 11:25:00,
2013-08-29 07:30:00,73.4,73.2,29.65,SW,225,2.2,3.8,99,0.00,,,0.47,fowsr,2013-08-29 11:30:00,
2013-08-29 07:35:00,73.4,73.2,29.65,West,270,1.6,3.1,99,0.00,,,0.47,fowsr,2013-08-29 11:35:00,
2013-08-29 07:40:00,73.4,73.2,29.65,South,180,0.7,2.2,99,0.00,,,0.47,fowsr,2013-08-29 11:40:00,
2013-08-29 07:45:00,73.6,73.3,29.65,SW,225,2.2,4.5,99,0.00,,,0.47,fowsr,2013-08-29 11:45:00,
2013-08-29 07:50:00,73.8,73.3,29.66,West,270,0.0,1.6,98,0.00,,,0.47,fowsr,2013-08-29 11:50:00,
2013-08-29 07:55:00,73.8,73.3,29.66,SW,225,3.1,5.4,98,0.00,,,0.47,fowsr,2013-08-29 11:55:00,
2013-08-29 08:00:00,74.1,73.4,29.66,West,270,0.7,2.2,97,0.00,,,0.47,fowsr,2013-08-29 12:00:00,
2013-08-29 08:05:00,74.5,73.8,29.66,SW,225,4.5,6.0,97,0.00,,,0.47,fowsr,2013-08-29 12:05:00,
2013-08-29 08:10:00,74.8,73.6,29.67,SW,225,1.6,3.1,95,0.00,,,0.47,fowsr,2013-08-29 12:10:00,
2013-08-29 08:15:00,75.2,73.2,29.67,NW,315,2.2,4.5,92,0.00,,,0.47,fowsr,2013-08-29 12:15:00,
2013-08-29 08:20:00,75.4,73.1,29.66,SSE,157,3.1,6.0,91,0.00,,,0.47,fowsr,2013-08-29 12:20:00,
2013-08-29 08:25:00,75.7,73.5,29.67,SW,225,3.8,6.9,91,0.00,,,0.47,fowsr,2013-08-29 12:25:00,
2013-08-29 08:30:00,75.9,73.4,29.67,SW,225,5.4,8.3,90,0.00,,,0.47,fowsr,2013-08-29 12:30:00,
2013-08-29 08:35:00,75.7,73.2,29.67,SW,225,2.2,4.5,90,0.00,,,0.47,fowsr,2013-08-29 12:35:00,
2013-08-29 08:40:00,75.4,73.1,29.67,South,180,3.8,5.4,91,0.00,,,0.47,fowsr,2013-08-29 12:40:00,
2013-08-29 08:45:00,75.2,73.2,29.68,SW,225,2.2,4.5,92,0.00,,,0.47,fowsr,2013-08-29 12:45:00,
2013-08-29 08:50:00,75.6,73.6,29.67,South,180,4.5,6.0,92,0.00,,,0.47,fowsr,2013-08-29 12:50:00,
2013-08-29 08:55:00,75.7,73.2,29.68,SW,225,1.6,3.1,90,0.00,,,0.47,fowsr,2013-08-29 12:55:00,
2013-08-29 09:00:00,75.4,72.9,29.68,SSW,202,3.1,4.5,90,0.00,,,0.47,fowsr,2013-08-29 13:00:00,
2013-08-29 09:05:00,75.4,72.9,29.67,SW,225,1.6,3.1,90,0.00,,,0.47,fowsr,2013-08-29 13:05:00,
2013-08-29 09:10:00,75.6,73.3,29.68,North,0,1.6,3.1,91,0.00,,,0.47,fowsr,2013-08-29 13:10:00,
2013-08-29 09:20:00,75.6,73.3,29.69,NW,315,4.5,6.9,91,0.00,,,0.47,fowsr,2013-08-29 13:20:00,
2013-08-29 09:25:00,75.6,73.3,29.69,WNW,292,2.2,3.8,91,0.00,,,0.47,fowsr,2013-08-29 13:25:00,
2013-08-29 09:30:00,75.6,73.1,29.69,NW,315,4.5,7.6,90,0.00,,,0.47,fowsr,2013-08-29 13:30:00,
2013-08-29 09:35:00,75.7,73.2,29.69,SSW,202,4.5,6.9,90,0.00,,,0.47,fowsr,2013-08-29 13:35:00,
2013-08-29 09:40:00,76.5,73.4,29.69,SW,225,4.5,7.6,88,0.00,,,0.47,fowsr,2013-08-29 13:40:00,
2013-08-29 09:45:00,76.3,73.0,29.69,North,0,2.2,3.8,87,0.00,,,0.47,fowsr,2013-08-29 13:45:00,
2013-08-29 09:55:00,75.9,72.9,29.69,SW,225,1.6,3.8,88,0.00,,,0.47,fowsr,2013-08-29 13:55:00,
2013-08-29 10:00:00,75.7,72.7,29.69,NW,315,5.4,9.2,88,0.00,,,0.47,fowsr,2013-08-29 14:00:00,
2013-08-29 10:05:00,75.6,72.5,29.70,South,180,6.9,11.4,88,0.00,,,0.47,fowsr,2013-08-29 14:05:00,
2013-08-29 10:10:00,75.4,72.4,29.70,SW,225,6.0,12.1,88,0.00,,,0.47,fowsr,2013-08-29 14:10:00,
2013-08-29 10:15:00,75.6,72.5,29.70,SSW,202,2.2,4.5,88,0.00,,,0.47,fowsr,2013-08-29 14:15:00,
2013-08-29 10:20:00,75.7,72.7,29.70,NW,315,5.4,9.8,88,0.00,,,0.47,fowsr,2013-08-29 14:20:00,
2013-08-29 10:25:00,75.7,72.2,29.70,SSW,202,5.4,7.6,86,0.00,,,0.47,fowsr,2013-08-29 14:25:00,
2013-08-29 10:30:00,75.7,72.2,29.70,North,0,6.0,9.2,86,0.00,,,0.47,fowsr,2013-08-29 14:30:00,
2013-08-29 10:35:00,75.7,72.2,29.70,South,180,7.6,9.8,86,0.00,,,0.47,fowsr,2013-08-29 14:35:00,
2013-08-29 10:40:00,75.7,71.9,29.71,SE,135,3.8,6.0,85,0.00,,,0.47,fowsr,2013-08-29 14:40:00,
2013-08-29 10:45:00,75.9,72.1,29.71,South,180,3.8,7.6,85,0.00,,,0.47,fowsr,2013-08-29 14:45:00,
2013-08-29 10:50:00,76.1,72.2,29.71,NW,315,5.4,7.6,85,0.00,,,0.47,fowsr,2013-08-29 14:50:00,
2013-08-29 10:55:00,76.3,72.4,29.71,SE,135,1.6,3.8,85,0.00,,,0.47,fowsr,2013-08-29 14:55:00,
2013-08-29 11:00:00,76.6,72.8,29.71,West,270,4.5,9.2,85,0.00,,,0.47,fowsr,2013-08-29 15:00:00,
2013-08-29 11:05:00,77.0,72.3,29.72,WSW,247,4.5,6.9,82,0.00,,,0.47,fowsr,2013-08-29 15:05:00,
2013-08-29 11:10:00,77.2,71.9,29.72,West,270,5.4,9.8,80,0.00,,,0.47,fowsr,2013-08-29 15:10:00,
2013-08-29 11:15:00,76.8,71.2,29.72,West,270,3.8,6.9,79,0.00,,,0.47,fowsr,2013-08-29 15:15:00,
2013-08-29 11:20:00,76.8,71.5,29.71,SW,225,4.5,8.3,80,0.00,,,0.47,fowsr,2013-08-29 15:20:00,
2013-08-29 11:25:00,77.0,71.1,29.72,WNW,292,6.0,13.0,78,0.00,,,0.47,fowsr,2013-08-29 15:25:00,
2013-08-29 11:30:00,77.2,71.3,29.71,SW,225,6.0,9.8,78,0.00,,,0.47,fowsr,2013-08-29 15:30:00,
2013-08-29 11:35:00,77.4,71.5,29.72,SE,135,3.8,7.6,78,0.00,,,0.47,fowsr,2013-08-29 15:35:00,
2013-08-29 11:40:00,77.4,71.5,29.72,SW,225,8.3,14.5,78,0.00,,,0.47,fowsr,2013-08-29 15:40:00,
2013-08-29 11:45:00,77.0,71.1,29.72,West,270,6.0,9.8,78,0.00,,,0.47,fowsr,2013-08-29 15:45:00,
2013-08-29 11:50:00,76.1,71.1,29.72,NW,315,5.4,9.8,81,0.00,,,0.47,fowsr,2013-08-29 15:50:00,
2013-08-29 11:55:00,75.2,70.3,29.72,NW,315,3.8,6.9,81,0.00,,,0.47,fowsr,2013-08-29 15:55:00,
2013-08-29 12:00:00,74.8,70.5,29.72,West,270,1.6,3.1,83,0.00,,,0.47,fowsr,2013-08-29 16:00:00,
2013-08-29 12:05:00,75.0,70.6,29.72,South,180,4.5,9.8,83,0.00,,,0.47,fowsr,2013-08-29 16:05:00,
2013-08-29 12:10:00,74.8,70.5,29.73,SW,225,5.4,7.6,83,0.00,,,0.47,fowsr,2013-08-29 16:10:00,
2013-08-29 12:15:00,74.5,70.4,29.73,South,180,5.4,8.3,84,0.00,,,0.47,fowsr,2013-08-29 16:15:00,
2013-08-29 12:20:00,74.5,70.4,29.73,SW,225,6.9,9.2,84,0.00,,,0.47,fowsr,2013-08-29 16:20:00,
2013-08-29 12:25:00,74.3,69.9,29.73,South,180,3.8,7.6,83,0.00,,,0.47,fowsr,2013-08-29 16:25:00,
2013-08-29 12:30:00,74.5,70.1,29.73,West,270,2.2,3.8,83,0.00,,,0.47,fowsr,2013-08-29 16:30:00,
2013-08-29 12:35:00,74.8,69.9,29.73,SW,225,2.2,4.5,81,0.00,,,0.47,fowsr,2013-08-29 16:35:00,
2013-08-29 12:40:00,75.2,69.7,29.73,South,180,6.9,8.3,79,0.00,,,0.47,fowsr,2013-08-29 16:40:00,
2013-08-29 12:45:00,75.4,69.9,29.73,NE,45,0.7,3.1,79,0.00,,,0.47,fowsr,2013-08-29 16:45:00,
2013-08-29 12:50:00,75.9,69.8,29.73,South,180,4.5,8.3,77,0.00,,,0.45,fowsr,2013-08-29 16:50:00,
2013-08-29 12:55:00,76.1,70.0,29.73,SW,225,2.2,3.8,77,0.00,,,0.43,fowsr,2013-08-29 16:55:00,
2013-08-29 13:00:00,76.3,70.1,29.73,SSE,157,5.4,8.3,77,0.00,,,0.41,fowsr,2013-08-29 17:00:00,
2013-08-29 13:05:00,76.3,70.1,29.73,SW,225,6.9,9.8,77,0.00,,,0.28,fowsr,2013-08-29 17:05:00,
2013-08-29 13:10:00,76.1,70.0,29.73,South,180,2.2,5.4,77,0.00,,,0.22,fowsr,2013-08-29 17:10:00,
2013-08-29 13:15:00,76.3,70.1,29.73,West,270,1.6,4.5,77,0.00,,,0.22,fowsr,2013-08-29 17:15:00,
2013-08-29 13:20:00,76.5,70.6,29.73,WNW,292,2.2,3.8,78,0.00,,,0.18,fowsr,2013-08-29 17:20:00,
2013-08-29 13:25:00,76.5,70.0,29.73,NW,315,5.4,8.3,76,0.00,,,0.14,fowsr,2013-08-29 17:25:00,
2013-08-29 13:30:00,76.3,69.8,29.74,SW,225,4.5,7.6,76,0.00,,,0.13,fowsr,2013-08-29 17:30:00,
2013-08-29 13:35:00,76.8,70.0,29.74,SW,225,5.4,9.2,75,0.00,,,0.13,fowsr,2013-08-29 17:35:00,
2013-08-29 13:45:00,76.8,70.0,29.74,SW,225,7.6,9.2,75,0.00,,,0.13,fowsr,2013-08-29 17:45:00,
2013-08-29 13:50:00,77.2,70.4,29.74,NW,315,3.1,6.9,75,0.00,,,0.13,fowsr,2013-08-29 17:50:00,
2013-08-29 13:55:00,77.4,69.9,29.74,West,270,2.2,3.8,73,0.00,,,0.13,fowsr,2013-08-29 17:55:00,
2013-08-29 14:00:00,77.4,70.2,29.74,NW,315,6.9,9.2,74,0.00,,,0.13,fowsr,2013-08-29 18:00:00,
2013-08-29 14:05:00,77.4,70.2,29.74,SW,225,5.4,7.6,74,0.00,,,0.13,fowsr,2013-08-29 18:05:00,
2013-08-29 14:10:00,77.2,70.4,29.75,South,180,3.8,6.9,75,0.00,,,0.11,fowsr,2013-08-29 18:10:00,
2013-08-29 14:20:00,77.0,70.2,29.75,NW,315,5.4,8.3,75,0.00,,,0.09,fowsr,2013-08-29 18:20:00,
2013-08-29 14:25:00,77.0,69.9,29.75,NW,315,1.6,3.8,74,0.00,,,0.09,fowsr,2013-08-29 18:25:00,
2013-08-29 14:30:00,77.4,69.9,29.75,NW,315,4.5,8.3,73,0.00,,,0.09,fowsr,2013-08-29 18:30:00,
2013-08-29 14:35:00,77.4,69.9,29.74,SW,225,6.0,9.8,73,0.00,,,0.08,fowsr,2013-08-29 18:35:00,
2013-08-29 14:40:00,77.5,70.1,29.74,WNW,292,6.9,11.4,73,0.00,,,0.08,fowsr,2013-08-29 18:40:00,
2013-08-29 14:45:00,77.7,70.3,29.75,SW,225,4.5,7.6,73,0.00,,,0.08,fowsr,2013-08-29 18:45:00,
2013-08-29 14:50:00,77.7,70.3,29.74,SE,135,5.4,8.3,73,0.00,,,0.08,fowsr,2013-08-29 18:50:00,
2013-08-29 14:55:00,78.1,70.6,29.74,West,270,3.1,6.0,73,0.00,,,0.08,fowsr,2013-08-29 18:55:00,
2013-08-29 15:00:00,78.4,70.6,29.74,SW,225,6.0,9.2,72,0.00,,,0.08,fowsr,2013-08-29 19:00:00,
2013-08-29 15:05:00,78.3,70.8,29.74,SW,225,3.1,5.4,73,0.00,,,0.08,fowsr,2013-08-29 19:05:00,
2013-08-29 15:10:00,78.1,70.3,29.74,West,270,1.6,3.8,72,0.00,,,0.07,fowsr,2013-08-29 19:10:00,
2013-08-29 15:15:00,78.3,70.5,29.74,SW,225,6.0,12.1,72,0.00,,,0.06,fowsr,2013-08-29 19:15:00,
2013-08-29 15:20:00,77.9,70.4,29.74,South,180,3.1,6.0,73,0.00,,,0.05,fowsr,2013-08-29 19:20:00,
2013-08-29 15:25:00,77.9,70.1,29.75,SE,135,8.3,16.8,72,0.00,,,0.02,fowsr,2013-08-29 19:25:00,
2013-08-29 15:30:00,77.5,70.1,29.74,SW,225,4.5,8.3,73,0.00,,,0.02,fowsr,2013-08-29 19:30:00,
2013-08-29 15:35:00,77.5,69.8,29.74,NW,315,4.5,6.9,72,0.00,,,0.02,fowsr,2013-08-29 19:35:00,
2013-08-29 15:40:00,77.4,69.6,29.75,SW,225,6.9,11.4,72,0.00,,,0.01,fowsr,2013-08-29 19:40:00,
2013-08-29 15:45:00,77.5,70.1,29.74,SSW,202,9.2,15.2,73,0.00,,,0.01,fowsr,2013-08-29 19:45:00,
2013-08-29 15:50:00,77.4,68.6,29.74,SW,225,6.9,11.4,69,0.00,,,0.01,fowsr,2013-08-29 19:50:00,
2013-08-29 15:55:00,77.4,69.3,29.74,SW,225,2.2,3.8,71,0.00,,,0.01,fowsr,2013-08-29 19:55:00,
2013-08-29 16:00:00,77.7,69.3,29.74,SW,225,2.2,4.5,70,0.00,,,0.01,fowsr,2013-08-29 20:00:00,
2013-08-29 16:05:00,77.7,69.3,29.74,SW,225,3.8,5.4,70,0.00,,,0.01,fowsr,2013-08-29 20:05:00,
2013-08-29 16:10:00,77.9,69.5,29.74,SE,135,6.0,10.7,70,0.00,,,0.01,fowsr,2013-08-29 20:10:00,
2013-08-29 16:20:00,77.4,68.6,29.74,NW,315,8.3,11.4,69,0.00,,,0.01,fowsr,2013-08-29 20:20:00,
2013-08-29 16:25:00,77.2,69.1,29.74,SSW,202,3.8,5.4,71,0.00,,,0.01,fowsr,2013-08-29 20:25:00,
2013-08-29 16:30:00,77.4,68.6,29.74,SW,225,4.5,7.6,69,0.00,,,0.01,fowsr,2013-08-29 20:30:00,
2013-08-29 16:35:00,77.0,68.6,29.74,SW,225,7.6,9.8,70,0.00,,,0.01,fowsr,2013-08-29 20:35:00,
2013-08-29 16:40:00,77.0,68.6,29.74,SE,135,7.6,13.6,70,0.00,,,0.01,fowsr,2013-08-29 20:40:00,
2013-08-29 16:45:00,77.0,68.6,29.74,West,270,5.4,6.9,70,0.00,,,0.01,fowsr,2013-08-29 20:45:00,
2013-08-29 16:50:00,77.0,68.3,29.74,West,270,7.6,13.0,69,0.00,,,0.01,fowsr,2013-08-29 20:50:00,
2013-08-29 16:55:00,76.8,68.5,29.74,West,270,4.5,7.6,70,0.00,,,0.01,fowsr,2013-08-29 20:55:00,
2013-08-29 17:00:00,76.8,68.1,29.74,SE,135,4.5,8.3,69,0.00,,,0.01,fowsr,2013-08-29 21:00:00,
2013-08-29 17:05:00,77.0,68.0,29.74,West,270,4.5,13.0,68,0.00,,,0.01,fowsr,2013-08-29 21:05:00,
2013-08-29 17:10:00,77.2,68.8,29.74,South,180,3.8,6.9,70,0.00,,,0.01,fowsr,2013-08-29 21:10:00,
2013-08-29 17:15:00,77.4,69.0,29.74,NW,315,4.5,9.2,70,0.00,,,0.01,fowsr,2013-08-29 21:15:00,
2013-08-29 17:20:00,77.2,68.8,29.74,West,270,5.4,7.6,70,0.00,,,0.01,fowsr,2013-08-29 21:20:00,
2013-08-29 17:25:00,77.0,69.3,29.74,West,270,3.8,9.2,72,0.00,,,0.01,fowsr,2013-08-29 21:25:00,
2013-08-29 17:30:00,77.0,69.3,29.74,SW,225,6.9,12.1,72,0.00,,,0.01,fowsr,2013-08-29 21:30:00,
2013-08-29 17:35:00,76.6,69.6,29.74,South,180,7.6,10.7,74,0.00,,,0.01,fowsr,2013-08-29 21:35:00,
2013-08-29 17:40:00,76.5,69.4,29.74,SW,225,5.4,7.6,74,0.00,,,0.01,fowsr,2013-08-29 21:40:00,
2013-08-29 17:45:00,76.3,69.2,29.74,SW,225,6.0,9.2,74,0.00,,,0.01,fowsr,2013-08-29 21:45:00,
2013-08-29 17:50:00,76.1,69.0,29.74,South,180,4.5,7.6,74,0.00,,,0.01,fowsr,2013-08-29 21:50:00,
2013-08-29 17:55:00,75.9,69.2,29.74,SW,225,3.1,5.4,75,0.00,,,0.01,fowsr,2013-08-29 21:55:00,
2013-08-29 18:00:00,75.7,69.0,29.75,West,270,3.8,9.2,75,0.00,,,0.01,fowsr,2013-08-29 22:00:00,
2013-08-29 18:05:00,75.6,69.1,29.74,NW,315,5.4,7.6,76,0.00,,,0.01,fowsr,2013-08-29 22:05:00,
2013-08-29 18:10:00,75.6,69.4,29.74,WSW,247,2.2,5.4,77,0.00,,,0.01,fowsr,2013-08-29 22:10:00,
2013-08-29 18:15:00,75.7,69.3,29.74,SW,225,5.4,6.0,76,0.00,,,0.01,fowsr,2013-08-29 22:15:00,
2013-08-29 18:20:00,75.7,69.3,29.74,West,270,6.0,8.3,76,0.00,,,0.01,fowsr,2013-08-29 22:20:00,
2013-08-29 18:25:00,75.6,68.8,29.75,SSW,202,2.2,3.8,75,0.00,,,0.01,fowsr,2013-08-29 22:25:00,
2013-08-29 18:30:00,75.4,69.0,29.75,West,270,2.2,6.0,76,0.00,,,0.01,fowsr,2013-08-29 22:30:00,
2013-08-29 18:35:00,75.0,68.9,29.76,South,180,2.2,3.1,77,0.00,,,0.01,fowsr,2013-08-29 22:35:00,
2013-08-29 18:40:00,74.7,68.9,29.75,SW,225,2.2,4.5,78,0.00,,,0.01,fowsr,2013-08-29 22:40:00,
2013-08-29 18:45:00,74.5,68.7,29.75,SW,225,3.8,7.6,78,0.00,,,0.01,fowsr,2013-08-29 22:45:00,
2013-08-29 18:50:00,74.1,68.6,29.75,South,180,3.8,6.0,79,0.00,,,0.01,fowsr,2013-08-29 22:50:00,
2013-08-29 18:55:00,73.8,68.6,29.75,West,270,2.2,3.8,80,0.00,,,0.01,fowsr,2013-08-29 22:55:00,
2013-08-29 19:00:00,73.6,68.7,29.75,North,0,3.8,8.3,81,0.00,,,0.01,fowsr,2013-08-29 23:00:00,
2013-08-29 19:05:00,73.4,68.8,29.75,NW,315,1.6,3.1,82,0.00,,,0.01,fowsr,2013-08-29 23:05:00,
2013-08-29 19:10:00,73.0,68.4,29.76,SW,225,1.6,3.1,82,0.00,,,0.01,fowsr,2013-08-29 23:10:00,
2013-08-29 19:15:00,72.7,68.4,29.75,North,0,1.6,5.4,83,0.00,,,0.01,fowsr,2013-08-29 23:15:00,
2013-08-29 19:20:00,72.3,68.0,29.75,SW,225,2.2,4.5,83,0.00,,,0.01,fowsr,2013-08-29 23:20:00,
2013-08-29 19:25:00,72.1,68.1,29.75,West,270,1.6,3.1,84,0.00,,,0.01,fowsr,2013-08-29 23:25:00,
2013-08-29 19:30:00,72.0,68.2,29.76,SW,225,3.8,4.5,85,0.00,,,0.01,fowsr,2013-08-29 23:30:00,
2013-08-29 19:35:00,71.6,67.9,29.76,SW,225,1.6,3.1,85,0.00,,,0.01,fowsr,2013-08-29 23:35:00,
2013-08-29 19:40:00,71.4,68.2,29.76,SSW,202,4.5,6.9,87,0.00,,,0.01,fowsr,2013-08-29 23:40:00,
2013-08-29 19:45:00,71.4,68.5,29.76,West,270,2.2,3.8,88,0.00,,,0.01,fowsr,2013-08-29 23:45:00,
2013-08-29 19:50:00,71.2,68.3,29.77,South,180,0.7,2.2,88,0.00,,,0.01,fowsr,2013-08-29 23:50:00,
2013-08-29 19:55:00,71.1,68.1,29.77,South,180,2.2,3.8,88,0.00,,,0.01,fowsr,2013-08-29 23:55:00,
2013-08-29 20:00:00,70.9,68.2,29.77,West,270,2.2,3.1,89,0.00,,,0.01,fowsr,2013-08-30 00:00:00,
2013-08-29 20:05:00,70.9,68.2,29.77,West,270,1.6,2.2,89,0.00,,,0.01,fowsr,2013-08-30 00:05:00,
2013-08-29 20:10:00,70.7,68.0,29.77,West,270,1.6,3.1,89,0.00,,,0.01,fowsr,2013-08-30 00:10:00,
2013-08-29 20:15:00,70.7,68.0,29.78,SW,225,0.7,2.2,89,0.00,,,0.01,fowsr,2013-08-30 00:15:00,
2013-08-29 20:20:00,70.5,67.8,29.77,SSE,157,2.2,3.8,89,0.00,,,0.01,fowsr,2013-08-30 00:20:00,
2013-08-29 20:25:00,70.3,67.9,29.78,West,270,3.8,4.5,90,0.00,,,0.01,fowsr,2013-08-30 00:25:00,
2013-08-29 20:30:00,70.3,67.9,29.77,South,180,0.0,0.7,90,0.00,,,0.01,fowsr,2013-08-30 00:30:00,
2013-08-29 20:35:00,70.3,67.9,29.78,SW,225,0.0,0.7,90,0.00,,,0.01,fowsr,2013-08-30 00:35:00,
2013-08-29 20:40:00,70.2,67.7,29.77,SW,225,0.0,0.7,90,0.00,,,0.01,fowsr,2013-08-30 00:40:00,
2013-08-29 20:45:00,70.0,67.6,29.78,West,270,0.0,1.6,90,0.00,,,0.01,fowsr,2013-08-30 00:45:00,
2013-08-29 20:50:00,70.0,67.6,29.78,SW,225,2.2,3.1,90,0.00,,,0.01,fowsr,2013-08-30 00:50:00,
2013-08-29 20:55:00,70.0,67.6,29.78,SW,225,0.0,3.1,90,0.00,,,0.01,fowsr,2013-08-30 00:55:00,
2013-08-29 21:00:00,69.8,67.6,29.78,SW,225,1.6,3.1,91,0.00,,,0.01,fowsr,2013-08-30 01:00:00,
2013-08-29 21:05:00,69.8,67.6,29.78,SW,225,2.2,3.8,91,0.00,,,0.01,fowsr,2013-08-30 01:05:00,
2013-08-29 21:10:00,69.8,67.6,29.78,SW,225,0.7,2.2,91,0.00,,,0.01,fowsr,2013-08-30 01:10:00,
2013-08-29 21:15:00,69.8,67.9,29.78,West,270,0.7,3.1,92,0.00,,,0.01,fowsr,2013-08-30 01:15:00,
2013-08-29 21:20:00,69.8,67.9,29.78,West,270,0.7,1.6,92,0.00,,,0.01,fowsr,2013-08-30 01:20:00,
2013-08-29 21:25:00,69.6,68.0,29.79,West,270,2.2,3.8,93,0.00,,,0.01,fowsr,2013-08-30 01:25:00,
2013-08-29 21:30:00,69.6,68.0,29.78,West,270,1.6,3.1,93,0.00,,,0.01,fowsr,2013-08-30 01:30:00,
2013-08-29 21:35:00,69.6,68.0,29.78,West,270,0.0,0.7,93,0.00,,,0.01,fowsr,2013-08-30 01:35:00,
2013-08-29 21:40:00,69.6,68.2,29.78,West,270,0.0,0.0,94,0.00,,,0.01,fowsr,2013-08-30 01:40:00,
2013-08-29 21:45:00,69.4,68.0,29.78,West,270,0.0,0.7,94,0.00,,,0.01,fowsr,2013-08-30 01:45:00,
2013-08-29 21:50:00,69.4,68.0,29.78,South,180,0.0,0.7,94,0.00,,,0.01,fowsr,2013-08-30 01:50:00,
2013-08-29 21:55:00,69.4,68.0,29.78,WSW,247,2.2,3.8,94,0.00,,,0.01,fowsr,2013-08-30 01:55:00,
2013-08-29 22:00:00,69.3,67.8,29.78,West,270,0.0,0.7,94,0.00,,,0.01,fowsr,2013-08-30 02:00:00,
2013-08-29 22:05:00,69.3,67.8,29.78,SW,225,0.0,2.2,94,0.00,,,0.01,fowsr,2013-08-30 02:05:00,
2013-08-29 22:10:00,69.3,68.1,29.78,SW,225,0.0,0.7,95,0.00,,,0.01,fowsr,2013-08-30 02:10:00,
2013-08-29 22:15:00,69.3,68.1,29.78,SW,225,1.6,3.1,95,0.00,,,0.01,fowsr,2013-08-30 02:15:00,
2013-08-29 22:20:00,69.3,68.1,29.78,West,270,0.0,0.7,95,0.00,,,0.01,fowsr,2013-08-30 02:20:00,
2013-08-29 22:25:00,69.3,68.1,29.78,West,270,0.0,1.6,95,0.00,,,0.01,fowsr,2013-08-30 02:25:00,
2013-08-29 22:30:00,69.1,67.9,29.77,West,270,1.6,3.1,95,0.00,,,0.01,fowsr,2013-08-30 02:30:00,
2013-08-29 22:35:00,69.1,67.9,29.78,NE,45,0.0,0.7,95,0.00,,,0.01,fowsr,2013-08-30 02:35:00,
2013-08-29 22:40:00,69.1,67.9,29.78,South,180,0.0,0.7,95,0.00,,,0.01,fowsr,2013-08-30 02:40:00,
2013-08-29 22:50:00,69.1,67.9,29.78,SW,225,0.7,2.2,95,0.00,,,0.01,fowsr,2013-08-30 02:50:00,
2013-08-29 22:55:00,69.1,67.9,29.78,SW,225,0.7,1.6,95,0.00,,,0.01,fowsr,2013-08-30 02:55:00,
2013-08-29 23:05:00,68.9,67.7,29.77,South,180,0.0,0.7,95,0.00,,,0.01,fowsr,2013-08-30 03:05:00,
2013-08-29 23:10:00,68.7,67.6,29.77,West,270,0.0,0.0,95,0.00,,,0.01,fowsr,2013-08-30 03:10:00,
2013-08-29 23:15:00,68.7,67.6,29.77,West,270,0.0,0.0,95,0.00,,,0.01,fowsr,2013-08-30 03:15:00,
2013-08-29 23:20:00,68.5,67.6,29.78,South,180,0.7,1.6,96,0.00,,,0.01,fowsr,2013-08-30 03:20:00,
2013-08-29 23:25:00,68.5,67.6,29.78,South,180,0.0,0.7,96,0.00,,,0.01,fowsr,2013-08-30 03:25:00,
2013-08-29 23:30:00,68.5,67.6,29.78,South,180,0.0,0.7,96,0.00,,,0.01,fowsr,2013-08-30 03:30:00,
2013-08-29 23:35:00,68.4,67.4,29.79,South,180,0.0,0.7,96,0.00,,,0.01,fowsr,2013-08-30 03:35:00,
2013-08-29 23:40:00,68.4,67.4,29.78,South,180,0.0,0.0,96,0.00,,,0.01,fowsr,2013-08-30 03:40:00,
2013-08-29 23:45:00,68.2,67.3,29.78,South,180,0.0,0.0,96,0.00,,,0.01,fowsr,2013-08-30 03:45:00,
2013-08-29 23:50:00,68.2,67.3,29.78,South,180,0.0,0.0,96,0.00,,,0.01,fowsr,2013-08-30 03:50:00,
2013-08-29 23:55:00,68.0,67.1,29.77,South,180,0.0,0.7,96,0.00,,,0.01,fowsr,2013-08-30 03:55:00,